768  
NZUS93 KARX 211559  
HRRWXR  
 
CURRENT HOURLY OBSERVATIONS ACROSS  
MUCH OF THE UPPER MISSISSIPPI VALLEY  
NATIONAL WEATHER SERVICE LA CROSSE WI  
1100 AM CDT THU AUG 21 2014  
 
   
..SOUTHEAST MINNESOTA
 
 
 
CITY SKY/WX TMP DP RH WIND PRES REMARKS  
ROCHESTER CLOUDY 74 69 85 S13 29.84R  
ROCHESTER/MAYO FAIR 72 68 89 SE6 29.83R  
WINONA CLOUDY 73 70 88 E6 29.81S  
AUSTIN PTSUNNY 72 70 94 S13 29.84R  
ALBERT LEA PTSUNNY 72 72 100 S15G22 29.83S  
DODGE CENTER PTSUNNY 77 72 83 S12G20 29.82R  
PRESTON CLOUDY 68 69 100 S17G25 29.81F  
OWATONNA MOSUNNY 81 70 69 S16 29.80S  
FARIBAULT MOSUNNY 82 68 61 S13G18 29.79F  

 
   
..ELSEWHERE IN MINNESOTA
 
 
 
CITY SKY/WX TMP DP RH WIND PRES REMARKS  
MINNEAPOLIS CLOUDY 78 69 73 SE10 29.78R  
INTNL FALLS CLOUDY 66 59 78 SE10 29.88F  
DULUTH CLOUDY 63 60 90 E12 29.89R  
RED WING PTSUNNY 79 70 73 SE9 29.79S  
REDWOOD FALLS MOSUNNY 81 73 76 S13 29.74F  
MANKATO MOSUNNY 79 70 73 S10G20 29.77F  
WORTHINGTON PTSUNNY 82 19 9 SW9G17 29.79S  
FAIRMONT CLOUDY 77 68 73 MISG 29.79R  

 
   
..SOUTHWEST WISCONSIN
 
 
 
CITY SKY/WX TMP DP RH WIND PRES REMARKS  
LA CROSSE CLOUDY 72 68 87 SE7 29.81F  
PRAIRIE DU CHI CLOUDY 71 68 92 CALM 29.93R  
BOSCOBEL LGT RAIN 71 69 93 E3 29.95S  
LONE ROCK RAIN 73 68 84 N8 29.96R  
PLATTEVILLE CLOUDY 71 70 95 S7 29.96R  
FORT MC COY CLOUDY 69 67 95 SE15 29.87F  
VIROQUA CLOUDY 67 67 100 S9 29.93F  
WIS DELLS CLOUDY 68 66 92 W3 29.97R  

 
   
..ELSEWHERE IN WISCONSIN
 
 
 
CITY SKY/WX TMP DP RH WIND PRES REMARKS  
MILWAUKEE LGT RAIN 71 67 87 CALM 29.94F  
MADISON TSTM 72 68 87 S7 29.93R  
GREEN BAY CLOUDY 70 63 78 SE8 29.97R  
EAU CLAIRE NOT AVBL  
BLACK RVR FLS PTSUNNY 69 69 100 E5 29.86F  
MEDFORD LGT RAIN 63 62 99 SE6 29.94F  
WAUSAU LGT RAIN 64 63 96 SE8 29.96R FOG  
WIS RAPIDS LGT RAIN 66 65 96 E6 29.97F  
MARSHFIELD LGT RAIN 67 65 93 SE9 29.93F  
RICE LAKE CLOUDY 70 67 89 SE10 29.87R  

 
   
..NORTHEAST IOWA
 
 
 
CITY SKY/WX TMP DP RH WIND PRES REMARKS  
WATERLOO LGT RAIN 75 72 90 E6 29.89F  
DUBUQUE CLOUDY 73 72 96 S9 29.93F FOG  
DECORAH LGT RAIN 70 68 94 SE8 29.92F  
MASON CITY CLOUDY 72 71 97 SE12 29.87F  
CHARLES CITY LGT RAIN 72 72 100 SE15 29.88F  
OELWEIN CLOUDY 73 73 100 S5 29.94R FOG  

 
   
..ELSEWHERE IN IOWA
 
 
 
CITY SKY/WX TMP DP RH WIND PRES REMARKS  
DES MOINES CLOUDY 78 72 81 VRB3 29.88R  
IOWA CITY CLOUDY 79 71 76 CALM 29.92R  
FORT DODGE CLOUDY 75 72 88 SW3 29.85F  
MARSHALLTOWN TSTM 74 72 93 N7 29.88F FOG  
CEDAR RAPIDS CLOUDY 77 72 84 W5 29.92R  

 
   
..NORTHERN ILLINOIS
 
 
 
CITY SKY/WX TMP DP RH WIND PRES REMARKS  
CHICAGO-OHARE CLOUDY 75 68 78 S9 29.94R  
DUPAGE CLOUDY 75 72 90 S8 29.94S  
CHICAGO-MIDWAY CLOUDY 76 72 87 S9 29.93F  
MOLINE CLOUDY 79 70 74 CALM 29.93R  
ROCKFORD CLOUDY 75 71 87 S8 29.96R THUNDER  
STERLING CLOUDY 73 70 88 S7 29.93F  
PEORIA PTSUNNY 83 71 67 SW9 29.96S  

 
 
NOTE: "FAIR" INDICATES FEW OR NO CLOUDS BELOW 12,000 FEET WITH NO  
SIGNIFICANT WEATHER AND/OR OBSTRUCTIONS TO VISIBILITY. WIND  
SPEEDS ARE IN MILES-PER-HOUR.  
 
CLICK HERE TO GO TO PREVIOUS BULLETINS.

The Nexlab WI Page
The Nexlab IA Page
The Nexlab MN Page Main Text Page